SCP
-0 0 0 -0 0 0 0 0 0 -0 -0 -0 0 -0 -0 -0 0 0 0 -0 -0 0 0 0 0 0 0 0 0 0 0 0 0 0 0 0 0 0
0 -0 0 -0 0 0 0 0 0 0 -0 -0 0 0 -0 -0 0 0 0 0 0 0 0 0 0 0 0 0 0 0 0 0 0 0 0 0 0 0
-0 -0 -0 0 0 0 0 0 0 0 0 -0 -0 0 -0 -0 0 0 0 0 0 0 0 0 0 0 0 0 0 0 0 0 0 0 0 0 0 0
0 -0 -0 0 0 0 0 0 0 -0 -0 -0 0 0 0 -0 0 0 0 0 0 0 0 0 0 0 0 0 0 0 0 0 0 0 0 0 0 0
0 -0 -0 -0 -0 -0 -0 -0 -0 0 0 -0 -0 0 0 -0 -0 0 1 1 1 1 1 0 0 0 0 0 0 0 0 0 0 0 0 0 0 0
0 -0 -0 -0 -0 -0 -0 -0 0 0 0 0 0 0 0 -0 0 0 1 1 1 1 1 1 2 0 0 0 0 0 0 0 0 0 0 0 0 0
0 0 0 0 -0 -0 -0 -0 0 0 0 0 0 0 -0 0 0 0 0 1 2 3 2 4 4 5 7 0 0 0 0 0 0 0 0 0 0 0
-0 0 0 -0 -0 -0 0 -0 0 0 0 0 0 -0 -0 -0 0 0 0 0 1 2 5 5 5 4 4 5 1 0 0 0 0 0 0 0 0 0
0 -0 0 -0 -0 -0 -0 -0 -0 -0 -0 -0 -1 -0 -0 0 0 0 1 1 1 2 2 3 3 4 4 5 3 1 0 0 0 0 0 0 0 0
0 0 0 0 -0 -0 0 0 0 0 0 -0 -0 -0 0 0 1 1 1 1 1 3 2 3 2 3 4 4 2 0 0 0 0 0 0 0 0 0
0 0 0 0 0 -0 -0 -0 -0 -0 -0 -0 -0 -0 0 1 0 1 1 1 1 2 1 3 4 2 2 2 1 0 0 0 0 0 0 0 0 0
0 0 0 0 0 0 -0 -0 -0 0 -0 -0 -0 0 0 0 0 1 2 2 3 3 4 3 2 3 2 1 1 1 0 0 0 0 0 0 0 -0
0 0 0 -0 -0 -0 0 0 0 0 0 -0 0 1 2 2 4 3 3 3 4 4 4 2 2 2 2 1 1 0 0 0 0 0 0 0 0 0
0 0 -0 -0 0 0 0 0 0 0 0 0 0 1 2 4 3 2 5 6 4 3 3 2 1 1 0 0 0 0 0 0 0 0 0 -0 0 0
-0 0 0 0 0 0 0 0 0 1 1 1 1 2 3 2 3 5 5 5 4 2 2 1 1 1 0 0 0 0 0 0 0 0 0 0 0 0
-0 -0 0 1 0 1 2 0 1 1 1 2 2 3 2 4 5 5 5 3 2 1 1 1 1 0 0 0 0 0 0 0 0 0 0 0 0 0
1 1 1 0 1 1 2 3 2 3 2 3 3 3 4 4 4 5 3 2 2 1 1 1 0 0 0 0 0 0 0 0 0 0 0 0 0 0
1 1 1 1 2 2 3 3 2 2 3 4 5 4 4 4 4 3 2 2 2 1 1 1 0 0 0 0 0 0 0 0 0 0 0 0 0 0
2 2 2 2 5 4 3 3 4 4 4 5 4 3 3 3 2 2 2 1 1 1 1 1 0 0 0 0 0 0 0 0 0 0 0 0 0 0
2 2 2 5 4 3 4 5 4 4 6 4 3 2 2 3 3 2 2 1 1 1 1 1 0 0 0 0 1 0 0 0 0 0 0 0 0 0
2 2 3 4 5 7 7 6 7 5 4 4 3 3 2 2 2 2 1 1 1 1 1 1 0 0 0 1 0 0 0 0 0 0 0 0 0 0
3 3 5 8 8 7 4 5 4 3 3 2 2 2 2 2 2 1 1 1 1 1 1 1 1 0 0 0 0 0 0 0 0 0 0 0 0 0
2 3 6 5 4 5 5 3 4 3 2 2 2 2 1 2 2 1 1 1 1 1 0 1 1 0 0 0 0 0 0 0 0 0 0 0 0 0
Wind_Speed_500mb
18 19 20 13 14 15 15 14 13 14 10 7 6 14 18 15 19 27 28 36 35 34 38 41 42 43 44 43 45 46 43 42 45 39 35 30 24 21
16 26 16 18 17 18 17 17 17 18 21 15 14 15 22 24 26 37 41 39 45 45 46 48 51 53 55 56 60 61 56 51 52 48 45 41 32 23
27 23 23 27 21 19 19 19 20 21 25 24 23 23 30 43 46 45 45 40 41 48 55 60 62 60 60 65 69 72 72 68 64 60 55 51 42 32
30 31 30 26 30 29 28 27 25 25 27 38 35 37 36 34 45 53 56 46 41 44 53 57 57 58 57 59 65 70 76 85 82 78 70 62 57 48
34 36 34 34 36 31 31 28 27 31 30 32 37 36 40 38 39 46 47 45 44 43 51 54 61 68 64 62 58 61 70 80 85 90 87 78 72 63
39 38 38 39 41 41 39 39 37 38 37 39 42 43 42 39 37 42 43 38 42 48 50 53 65 60 58 60 56 63 69 64 74 85 93 93 85 71
43 42 41 43 43 45 39 37 36 38 37 39 42 44 44 42 38 40 55 56 48 50 65 60 55 56 56 71 74 66 61 53 50 55 65 84 84 79
46 47 48 50 51 51 52 51 50 55 58 53 52 53 57 56 51 51 59 69 70 45 55 61 53 59 57 56 67 61 64 54 51 53 53 63 90 85
52 52 49 42 45 47 50 51 53 56 62 67 75 74 77 75 75 73 56 55 57 49 52 58 49 54 48 52 58 65 63 66 58 44 28 35 52 84
61 59 59 58 57 57 56 57 58 66 65 66 71 71 71 66 59 54 62 67 58 52 39 55 55 51 51 57 55 57 56 50 45 42 27 28 35 81
66 67 70 73 72 69 70 73 75 78 70 69 71 70 67 59 55 56 55 51 46 41 36 41 50 70 72 67 56 34 50 40 40 24 17 17 27 72
67 70 73 74 73 72 74 75 79 78 71 65 64 62 54 51 50 49 46 46 45 52 29 54 61 55 73 60 48 53 48 35 22 23 21 14 40 70
57 57 55 55 54 52 56 63 70 68 67 62 52 46 49 49 48 37 45 47 47 43 54 57 64 62 39 48 45 58 40 19 14 8 22 45 63 58
66 49 46 50 55 56 57 58 54 53 58 60 54 48 46 46 43 49 43 48 49 48 54 53 54 35 32 35 33 31 19 16 13 32 44 42 46 59
75 62 58 60 62 65 67 65 60 61 62 58 51 51 57 45 43 42 43 46 51 44 51 54 43 32 21 25 27 5 14 23 31 31 35 38 52 55
72 74 73 73 73 71 61 65 67 64 56 57 56 51 43 40 41 44 53 54 46 43 50 46 40 31 10 26 7 5 14 12 23 22 23 21 45 47
67 68 69 68 71 69 60 67 54 51 52 54 50 48 51 53 56 59 57 51 40 39 37 46 37 22 21 18 8 8 7 14 16 24 25 28 39 46
43 52 51 49 50 44 57 55 48 45 44 46 52 54 59 57 57 55 53 49 48 38 30 45 31 16 18 23 22 24 19 20 21 32 24 31 46 52
53 37 38 40 51 57 51 46 44 45 45 46 45 46 49 51 51 50 45 43 34 31 29 33 26 28 26 23 28 30 25 24 27 34 34 36 36 41
62 48 46 44 38 35 37 41 35 35 39 45 43 46 47 47 50 46 47 33 33 32 35 42 34 39 33 24 22 30 37 34 35 37 44 35 39 37
46 47 47 46 46 48 47 48 52 46 47 46 49 49 51 49 43 38 34 39 43 39 40 39 39 35 28 29 25 31 37 46 39 41 40 43 48 52
46 51 50 39 40 43 37 43 46 43 47 49 48 47 45 42 42 37 39 40 39 40 41 33 39 38 33 35 32 32 32 33 41 46 45 48 45 51
42 52 51 41 38 44 38 30 41 43 35 35 34 35 36 37 39 37 36 36 37 39 35 36 38 39 35 38 37 35 36 36 40 53 53 59 58 53
Wind_Direction_500mb
221 226 221 230 234 235 243 250 262 289 286 269 277 253 260 260 278 279 276 283 292 290 286 283 282 280 278 276 273 270 263 260 260 260 257 262 267 272
219 236 234 229 241 244 242 248 250 254 268 270 281 280 271 268 274 275 286 285 283 288 287 284 281 277 276 274 273 271 266 264 260 257 253 254 256 255
211 223 241 229 232 240 249 254 251 254 264 273 273 275 282 288 296 300 300 290 288 296 300 299 298 295 288 280 275 272 269 265 261 256 250 249 247 247
226 228 235 241 258 237 235 245 249 253 263 273 277 279 284 290 296 306 307 308 292 285 281 292 297 296 298 293 282 275 272 266 262 257 250 244 241 235
227 229 231 235 241 241 247 252 263 279 278 277 286 287 286 287 288 293 300 298 304 314 316 312 305 297 296 296 294 285 280 270 267 259 253 245 239 232
229 229 233 235 240 248 255 256 263 264 266 271 280 287 291 294 290 292 296 298 298 297 300 304 306 308 306 299 292 293 294 287 271 264 253 247 241 230
227 235 238 238 241 247 247 257 261 268 269 273 277 283 285 291 291 290 292 298 298 300 300 298 298 298 294 295 297 298 307 303 299 283 266 250 236 230
239 238 236 236 245 251 254 258 258 261 264 268 271 275 277 284 290 289 288 291 296 302 298 296 298 296 300 308 308 300 309 296 305 304 286 268 229 219
249 249 248 248 261 270 274 272 268 266 269 274 275 276 280 284 289 291 291 290 291 293 298 298 306 309 318 310 308 305 307 306 307 302 292 286 230 211
248 255 259 256 249 249 256 264 272 278 282 283 283 285 287 295 298 296 294 295 295 302 307 299 315 310 311 310 309 306 304 307 300 298 283 283 245 204
252 255 257 262 266 268 268 269 272 273 273 272 276 283 289 289 287 289 288 298 297 297 310 299 311 315 317 320 320 318 313 303 300 275 291 267 256 193
256 258 259 262 264 266 266 269 272 275 280 278 274 275 281 283 283 287 289 291 287 299 297 306 308 315 319 327 322 323 307 310 287 256 256 225 178 177
248 250 261 271 273 270 268 269 272 278 276 274 279 284 281 279 283 280 290 282 285 288 303 306 309 314 313 315 322 315 319 310 250 244 143 142 161 174
242 247 256 263 269 274 276 276 278 278 274 274 273 271 273 273 268 285 270 272 286 291 293 303 308 308 307 310 306 329 6 23 115 137 141 153 177 187
247 245 242 246 251 259 265 272 274 271 271 270 268 270 278 278 279 275 269 278 288 287 293 302 304 297 303 301 318 19 64 94 127 140 147 161 183 204
246 248 251 252 251 254 257 266 269 271 268 270 269 271 272 270 271 272 280 289 284 294 295 287 293 291 263 290 312 140 122 140 146 151 157 181 203 220
243 245 248 249 254 258 259 262 266 268 268 273 271 264 265 272 277 279 281 285 264 287 277 282 291 258 248 258 237 202 185 197 196 190 184 195 205 206
246 237 239 242 244 248 252 266 269 265 262 260 268 273 278 282 283 280 279 270 274 281 262 251 261 250 260 288 243 224 230 235 225 206 199 203 201 201
238 238 239 240 238 245 255 263 267 271 273 264 269 275 277 284 279 276 276 276 271 257 244 243 244 227 232 254 251 246 240 235 209 203 199 197 206 211
247 249 245 245 247 252 260 266 255 261 262 268 272 275 279 282 279 273 265 268 253 250 243 245 234 231 223 229 264 257 241 221 215 200 194 197 202 199
257 258 254 251 252 251 252 261 260 256 258 262 273 277 281 275 271 262 259 252 246 245 244 244 245 229 234 228 240 250 252 227 222 212 207 199 201 205
245 251 251 251 255 248 256 258 261 264 262 271 268 270 269 269 267 260 258 257 254 246 246 244 242 237 229 225 233 239 243 240 219 205 196 204 208 209
246 245 253 253 249 255 257 252 258 263 269 261 257 266 269 263 264 258 256 258 250 252 244 237 236 236 236 225 229 234 222 227 220 210 210 212 211 219
Wind_Speed_850mb
18 19 20 13 14 15 15 14 13 14 10 7 6 14 18 15 19 27 28 36 35 34 38 41 42 43 44 43 45 46 43 42 45 39 35 30 24 21
16 26 16 18 17 18 17 17 17 18 21 15 14 15 22 24 26 37 41 39 45 45 46 48 51 53 55 56 60 61 56 51 52 48 45 41 32 23
27 23 23 27 21 19 19 19 20 21 25 24 23 23 30 43 46 45 45 40 41 48 55 60 62 60 60 65 69 72 72 68 64 60 55 51 42 32
30 31 30 26 30 29 28 27 25 25 27 38 35 37 36 34 45 53 56 46 41 44 53 57 57 58 57 59 65 70 76 85 82 78 70 62 57 48
34 36 34 34 36 31 31 28 27 31 30 32 37 36 40 38 39 46 47 45 44 43 51 54 61 68 64 62 58 61 70 80 85 90 87 78 72 63
39 38 38 39 41 41 39 39 37 38 37 39 42 43 42 39 37 42 43 38 42 48 50 53 65 60 58 60 56 63 69 64 74 85 93 93 85 71
43 42 41 43 43 45 39 37 36 38 37 39 42 44 44 42 38 40 55 56 48 50 65 60 55 56 56 71 74 66 61 53 50 55 65 84 84 79
46 47 48 50 51 51 52 51 50 55 58 53 52 53 57 56 51 51 59 69 70 45 55 61 53 59 57 56 67 61 64 54 51 53 53 63 90 85
52 52 49 42 45 47 50 51 53 56 62 67 75 74 77 75 75 73 56 55 57 49 52 58 49 54 48 52 58 65 63 66 58 44 28 35 52 84
61 59 59 58 57 57 56 57 58 66 65 66 71 71 71 66 59 54 62 67 58 52 39 55 55 51 51 57 55 57 56 50 45 42 27 28 35 81
66 67 70 73 72 69 70 73 75 78 70 69 71 70 67 59 55 56 55 51 46 41 36 41 50 70 72 67 56 34 50 40 40 24 17 17 27 72
67 70 73 74 73 72 74 75 79 78 71 65 64 62 54 51 50 49 46 46 45 52 29 54 61 55 73 60 48 53 48 35 22 23 21 14 40 70
57 57 55 55 54 52 56 63 70 68 67 62 52 46 49 49 48 37 45 47 47 43 54 57 64 62 39 48 45 58 40 19 14 8 22 45 63 58
66 49 46 50 55 56 57 58 54 53 58 60 54 48 46 46 43 49 43 48 49 48 54 53 54 35 32 35 33 31 19 16 13 32 44 42 46 59
75 62 58 60 62 65 67 65 60 61 62 58 51 51 57 45 43 42 43 46 51 44 51 54 43 32 21 25 27 5 14 23 31 31 35 38 52 55
72 74 73 73 73 71 61 65 67 64 56 57 56 51 43 40 41 44 53 54 46 43 50 46 40 31 10 26 7 5 14 12 23 22 23 21 45 47
67 68 69 68 71 69 60 67 54 51 52 54 50 48 51 53 56 59 57 51 40 39 37 46 37 22 21 18 8 8 7 14 16 24 25 28 39 46
43 52 51 49 50 44 57 55 48 45 44 46 52 54 59 57 57 55 53 49 48 38 30 45 31 16 18 23 22 24 19 20 21 32 24 31 46 52
53 37 38 40 51 57 51 46 44 45 45 46 45 46 49 51 51 50 45 43 34 31 29 33 26 28 26 23 28 30 25 24 27 34 34 36 36 41
62 48 46 44 38 35 37 41 35 35 39 45 43 46 47 47 50 46 47 33 33 32 35 42 34 39 33 24 22 30 37 34 35 37 44 35 39 37
46 47 47 46 46 48 47 48 52 46 47 46 49 49 51 49 43 38 34 39 43 39 40 39 39 35 28 29 25 31 37 46 39 41 40 43 48 52
46 51 50 39 40 43 37 43 46 43 47 49 48 47 45 42 42 37 39 40 39 40 41 33 39 38 33 35 32 32 32 33 41 46 45 48 45 51
42 52 51 41 38 44 38 30 41 43 35 35 34 35 36 37 39 37 36 36 37 39 35 36 38 39 35 38 37 35 36 36 40 53 53 59 58 53
Wind_Direction_850mb
221 226 221 230 234 235 243 250 262 289 286 269 277 253 260 260 278 279 276 283 292 290 286 283 282 280 278 276 273 270 263 260 260 260 257 262 267 272
219 236 234 229 241 244 242 248 250 254 268 270 281 280 271 268 274 275 286 285 283 288 287 284 281 277 276 274 273 271 266 264 260 257 253 254 256 255
211 223 241 229 232 240 249 254 251 254 264 273 273 275 282 288 296 300 300 290 288 296 300 299 298 295 288 280 275 272 269 265 261 256 250 249 247 247
226 228 235 241 258 237 235 245 249 253 263 273 277 279 284 290 296 306 307 308 292 285 281 292 297 296 298 293 282 275 272 266 262 257 250 244 241 235
227 229 231 235 241 241 247 252 263 279 278 277 286 287 286 287 288 293 300 298 304 314 316 312 305 297 296 296 294 285 280 270 267 259 253 245 239 232
229 229 233 235 240 248 255 256 263 264 266 271 280 287 291 294 290 292 296 298 298 297 300 304 306 308 306 299 292 293 294 287 271 264 253 247 241 230
227 235 238 238 241 247 247 257 261 268 269 273 277 283 285 291 291 290 292 298 298 300 300 298 298 298 294 295 297 298 307 303 299 283 266 250 236 230
239 238 236 236 245 251 254 258 258 261 264 268 271 275 277 284 290 289 288 291 296 302 298 296 298 296 300 308 308 300 309 296 305 304 286 268 229 219
249 249 248 248 261 270 274 272 268 266 269 274 275 276 280 284 289 291 291 290 291 293 298 298 306 309 318 310 308 305 307 306 307 302 292 286 230 211
248 255 259 256 249 249 256 264 272 278 282 283 283 285 287 295 298 296 294 295 295 302 307 299 315 310 311 310 309 306 304 307 300 298 283 283 245 204
252 255 257 262 266 268 268 269 272 273 273 272 276 283 289 289 287 289 288 298 297 297 310 299 311 315 317 320 320 318 313 303 300 275 291 267 256 193
256 258 259 262 264 266 266 269 272 275 280 278 274 275 281 283 283 287 289 291 287 299 297 306 308 315 319 327 322 323 307 310 287 256 256 225 178 177
248 250 261 271 273 270 268 269 272 278 276 274 279 284 281 279 283 280 290 282 285 288 303 306 309 314 313 315 322 315 319 310 250 244 143 142 161 174
242 247 256 263 269 274 276 276 278 278 274 274 273 271 273 273 268 285 270 272 286 291 293 303 308 308 307 310 306 329 6 23 115 137 141 153 177 187
247 245 242 246 251 259 265 272 274 271 271 270 268 270 278 278 279 275 269 278 288 287 293 302 304 297 303 301 318 19 64 94 127 140 147 161 183 204
246 248 251 252 251 254 257 266 269 271 268 270 269 271 272 270 271 272 280 289 284 294 295 287 293 291 263 290 312 140 122 140 146 151 157 181 203 220
243 245 248 249 254 258 259 262 266 268 268 273 271 264 265 272 277 279 281 285 264 287 277 282 291 258 248 258 237 202 185 197 196 190 184 195 205 206
246 237 239 242 244 248 252 266 269 265 262 260 268 273 278 282 283 280 279 270 274 281 262 251 261 250 260 288 243 224 230 235 225 206 199 203 201 201
238 238 239 240 238 245 255 263 267 271 273 264 269 275 277 284 279 276 276 276 271 257 244 243 244 227 232 254 251 246 240 235 209 203 199 197 206 211
247 249 245 245 247 252 260 266 255 261 262 268 272 275 279 282 279 273 265 268 253 250 243 245 234 231 223 229 264 257 241 221 215 200 194 197 202 199
257 258 254 251 252 251 252 261 260 256 258 262 273 277 281 275 271 262 259 252 246 245 244 244 245 229 234 228 240 250 252 227 222 212 207 199 201 205
245 251 251 251 255 248 256 258 261 264 262 271 268 270 269 269 267 260 258 257 254 246 246 244 242 237 229 225 233 239 243 240 219 205 196 204 208 209
246 245 253 253 249 255 257 252 258 263 269 261 257 266 269 263 264 258 256 258 250 252 244 237 236 236 236 225 229 234 222 227 220 210 210 212 211 219